Regional Weather Roundup
Issued by NWS

Home | Current Version | Previous Version | Graphics & Text | Print | Product List | Glossary On
Versions: 1 2 3 4 5 6 7 8 9 10 11 12 13 14 15 16 17 18 19 20 21 22 23 24 25 26 27 28 29 30 31 32 33 34 35 36 37 38 39 40 41 42 43 44 45 46 47 48 49 50
000
ASUS43 KFSD 300010
RWRSD

WEATHER ROUNDUP FOR SOUTH DAKOTA
NATIONAL WEATHER SERVICE SIOUX FALLS SD
700 PM CDT WED MAR 29 2017

NOTE: "FAIR" INDICATES FEW OR NO CLOUDS BELOW 12,000 FEET WITH NO
SIGNIFICANT WEATHER AND/OR OBSTRUCTIONS TO VISIBILITY.


SDZ001>005-009-010-012>017-300100-
NORTHWEST AND NORTH CENTRAL SOUTH DAKOTA

CITY           SKY/WX    TMP DP  RH WIND       PRES   REMARKS
BUFFALO          N/A     62  29  28 MISG      29.84F
FAITH            N/A     56  40  55 MISG      29.95F
MOBRIDGE       MOSUNNY   61  27  27 S7        29.94F
$$

SDZ012>016-024>037-041>051-057-063-072>074-300100-
SOUTHWEST AND SOUTH CENTRAL SOUTH DAKOTA

CITY           SKY/WX    TMP DP  RH WIND       PRES   REMARKS
RAPID CTY ARPT SUNNY     56  37  49 E5        29.95F
PIERRE         CLOUDY    53  34  48 SE20      29.99R
CUSTER         PTSUNNY   43  35  73 E9        29.97F
ELLSWORTH AFB  SUNNY     56  37  48 CALM      29.94F
PHILIP         SUNNY     57  38  48 E5        29.97S
PINE RIDGE     MOSUNNY   54  38  54 E8        29.96F
SPEARFISH      FAIR      55  34  44 SE8       29.94F
WINNER         CLOUDY    49  37  63 E10       30.02S
$$

SDZ004>011-016>023-039-040-300100-
NORTHEAST SOUTH DAKOTA

CITY           SKY/WX    TMP DP  RH WIND       PRES   REMARKS
ABERDEEN       CLOUDY    55  32  41 SE14      30.03S
WATERTOWN      MOCLDY    45  35  68 SE9G21    30.08R
BROOKINGS      CLOUDY    43  37  79 E13G21    30.06S
SISSETON         N/A     52  37  56 S17       30.07R
$$

SDZ017-020-022-023-036>040-048>070-300100-
SOUTHEAST SOUTH DAKOTA

CITY           SKY/WX    TMP DP  RH WIND       PRES   REMARKS
SIOUX FALLS    LGT RAIN  41  40  96 E17G26    30.04S
HURON          CLOUDY    50  36  58 E12       30.05R
CHAMBERLAIN    PTSUNNY   51  37  56 NE9G16    30.03S
MITCHELL       CLOUDY    47  37  68 E16       30.06R
YANKTON        CLOUDY    39  37  93 NE18      30.00S
$$

ABBREVIATIONS USED IN REMARKS
   TC - TEMPERATURE IN CELSIUS
  WCI - WIND CHILL INDEX
   HX - HEAT INDEX
  VSB - VISIBILITY





USA.gov is the U.S. government's official web portal to all federal, state and local government web resources and services.